This is the latest recevied weather packets stored in our database for station/object RJTT. If no packets are shown the sender has not sent any weather packets the latest 1 day(s).
| Time | Temp. | Humidity | Pressure | Rain* | Wind** | Luminosity | Snow |
|---|---|---|---|---|---|---|---|
| 1778031826 | 20.56° C | 60% | 1022 hPa | - | 5.36 m/s, 200° | - | - |
| 1778031226 | 20.56° C | 60% | 1022 hPa | - | 4.47 m/s, 190° | - | - |
| 1778030624 | 20.56° C | 60% | 1022 hPa | - | 4.47 m/s, 190° | - | - |
| 1778030027 | 20.56° C | 60% | 1022 hPa | - | 4.47 m/s, 190° | - | - |
| 1778029424 | 20° C | 64% | 1022 hPa | - | 4.02 m/s, 190° | - | - |
| 1778028827 | 20° C | 64% | 1022 hPa | - | 4.02 m/s, 190° | - | - |
| 1778028225 | 20° C | 64% | 1022 hPa | - | 4.02 m/s, 190° | - | - |
| 1778027624 | 18.89° C | 63% | 1023 hPa | - | 1.79 m/s, 190° | - | - |
| 1778027024 | 18.89° C | 63% | 1023 hPa | - | 1.79 m/s, 190° | - | - |
| 1778026430 | 18.89° C | 63% | 1023 hPa | - | 1.79 m/s, 190° | - | - |
| 1778025828 | 18.89° C | 68% | 1022 hPa | - | 1.79 m/s, 190° | - | - |
| 1778025228 | 18.89° C | 68% | 1022 hPa | - | 1.79 m/s, 190° | - | - |
| 1778024624 | 18.89° C | 68% | 1022 hPa | - | 1.79 m/s, 190° | - | - |
| 1778024028 | 18.89° C | 72% | 1022 hPa | - | 1.34 m/s, 160° | - | - |
| 1778023428 | 18.89° C | 72% | 1022 hPa | - | 1.34 m/s, 160° | - | - |
| 1778022828 | 18.89° C | 72% | 1022 hPa | - | 1.34 m/s, 160° | - | - |
| 1778022345 | 18.89° C | 68% | 1023 hPa | - | 1.79 m/s, 180° | - | - |
| 1778021630 | 18.89° C | 68% | 1023 hPa | - | 1.79 m/s, 180° | - | - |
| 1778021025 | 18.89° C | 68% | 1023 hPa | - | 1.79 m/s, 180° | - | - |
| 1778020426 | 17.78° C | 72% | 1023 hPa | - | 1.79 m/s, 180° | - | - |
| 1778019824 | 17.78° C | 72% | 1023 hPa | - | 1.79 m/s, 180° | - | - |
| 1778019226 | 17.78° C | 72% | 1023 hPa | - | 1.79 m/s, 180° | - | - |
| 1778018747 | 16.67° C | 82% | 1023 hPa | - | 1.79 m/s, 180° | - | - |
| 1778018029 | 16.67° C | 82% | 1023 hPa | - | 1.79 m/s, 180° | - | - |
| 1778017429 | 16.67° C | 82% | 1023 hPa | - | 1.79 m/s, 180° | - | - |
* Rain since midnight (hover to see other rain measurements)
** Current wind speed in m/s (hover to see current wind gust speed)